Torna al catalogo

CZ-6A R/B

AttivoPO
NORAD 66958·ROCKET BODY·🇨🇳 China

Lanciato Dec 8, 2025 da Taiyuan Satellite Launch Center

Loading…

Prossimi Passaggi (prossime 24 ore)

TLE

AggiornatoSource: Space-Track

Epoca: Sep 13, 2026, 22:28 UTC

1 66958U 25287F   26256.93637247  .00000058  00000-0  29116-4 0  9996
2 66958  86.5014 241.4623 0104563 340.8990  18.8274 13.94953296 38905

Traccia CZ-6A R/B in tempo reale con AllMySat

Download on the App Store